Погода в Заречном

Россия / Удмуртская Республика     56°01′47″N   51°53′35″E
темп.,
°C
ветер,
м/с
пор.,
м/с
влажн.,
%
обл.,
%
осадки,
мм/ч
давл.,
гПа
погр.,
м
7 марта, вс
вс701:00−15зюз239789 0.1 101242
04:00−17юз239990 0.1 101121
07:00−15зюз239795 0.1 101054
10:00−14зюз349690 0.1 1010172
13:00−11зюз359385 0.0 1010364
16:00−10юз469292 0.1 1008531
19:00−14ю349792 0.1 100755
22:00−12ю5129495 0.1 1006357
8 марта, пн
пн801:00−10ю61294100 0.3 1002521
04:00−9ю71494100 1.1 998687
07:00−8ю61495100 0.4 994589
10:00−4ююз91594100 2.1 9931017
13:00−4зюз101678100 0.3 9941341
16:00−5зюз8138458 0.3 997959
19:00−8юз5128991 0.0 999353
22:00−12юз349389 0.0 100046
9 марта, вт
вт901:00−12зсз239295 0.0 100025
04:00−14з479572 0.0 1003108
07:00−16з469850 0.0 1006108
10:00−13зюз359671 0.1 1008200
13:00−10зюз359399 0.0 1010377
16:00−9зюз3490100 0.1 1010453
19:00−14зсз2396100 0.0 101021
22:00−16сз239795 0.1 101121
10 марта, ср
ср1001:00−14с349696 0.1 101074
04:00−15с489698 0.1 1010212
07:00−16с5995100 0.1 1010334
10:00−17с6993100 0.3 1012448
13:00−17ссз6991100 0.1 1013450
16:00−17ссз698698 0.1 1015589
19:00−20ссз5119172 0.0 1016245
22:00−23ссз5119338 0.0 1018231
11 марта, чт
чт1101:00−25ссз49960 0.0 1018162
04:00−26сз47980 0.0 1020122
07:00−27зсз47999 0.0 1021100
10:00−22зсз479631 0.0 1021251
13:00−17з4793100 0.0 1021398
16:00−14зсз5892100 0.1 1021496
19:00−14з3895100 0.1 1022202
22:00−13з4896100 0.1 1024205